Retour au catalogue

LEMUR-2 WOBLER

ActifMétéoSSO
NORAD 67368·PAYLOAD·🇺🇸 United States

Lancé Jan 11, 2026 depuis Vandenberg Space Force Base

Loading…

Prochains Passages (prochaines 24 heures)

TLE

FraisSource: Space-Track

Époque: Sep 14, 2026, 10:21 UTC

1 67368U 26004F   26257.43132564  .00002727  00000-0  29515-3 0  9995
2 67368  97.8102 254.8344 0007541 186.2456 173.8668 14.89062219 36570

Suivez LEMUR-2 WOBLER en temps réel avec AllMySat

Download on the App Store